Weather in Ronda

Spain     36°44′52″N   5°09′42″W
temp.,
°C
wind,
m/s
gust,
m/s
humid.,
%
clouds,
%
prec.,
mm/h
press.,
hPa
HPBL,
m
26 july, mon
mon2623:00+18wsw22752 0.0 101448
02:00+17wnw22810 0.0 101534
05:00+16wnw22870 0.0 101414
08:00+16nw11880 0.0 101432
11:00+22nw34550 0.0 1014888
14:00+27nw54370 0.0 10131562
17:00+28nw64333 0.0 10131781
20:00+27nnw43330 0.0 10131664
27 july, tue
tue2723:00+21n11500 0.0 101511
02:00+20ese22550 0.0 101513
05:00+17se22830 0.0 101523
08:00+18ese22850 0.0 101536
11:00+25se33470 0.0 1015871
14:00+30sse53300 0.0 10141996
17:00+31se54260 0.0 10122164
20:00+30sw33300 0.0 10111068
28 july, wed
wed2823:00+21sse21610 0.0 101415
02:00+20se22610 0.0 101413
05:00+19se22580 0.0 101312
08:00+19se21510 0.0 101313
11:00+28sse12270 0.0 1012857
14:00+34ssw23200 0.0 10122056
17:00+35sw33190 0.0 10102211
20:00+32sw12240 0.0 1011788
29 july, thu
thu2923:00+21se22520 0.0 101412
02:00+20se32510 0.0 101422
05:00+19se22470 0.0 101415
08:00+20se22450 0.0 101414
11:00+28ssw23280 0.0 1014738
14:00+34sw46190 0.0 10141615
17:00+35sw58170 0.0 10121887
20:00+32wsw45220 0.0 10121197
30 july, fri
fri3023:00+22wsw11490 0.0 101511
02:00+21ssw11535 0.0 101511
05:00+21wnw11425 0.0 101411
08:00+21nne22365 0.0 101412
11:00+30wnw231590 0.0 1015708
14:00+35w47998 0.0 10131538
17:00+36wnw57876 0.0 10121483
20:00+33wnw3593 0.0 1012980